Regional Weather Roundup
Issued by NWS

Home | Current Version | Previous Version | Graphics & Text | Print | Product List | Glossary Off
Versions: 1 2 3 4 5 6 7 8 9 10 11 12 13 14 15 16 17 18 19 20 21 22 23 24 25 26 27 28 29 30 31 32 33 34 35 36 37 38 39 40 41 42 43 44 45 46 47 48 49 50

000
ASUS43 KLSX 251607
RWRMO

WEATHER SUMMARY FOR MISSOURI
NATIONAL WEATHER SERVICE SPRINGFIELD MO
1100 AM CDT MON SEP 25 2017

NOTE: "FAIR" INDICATES FEW OR NO CLOUDS BELOW 12,000 FEET WITH NO
       SIGNIFICANT WEATHER AND/OR OBSTRUCTIONS TO VISIBILITY.
       CURRENT SKY AND/OR WEATHER CONDITIONS ARE NOT AVAILABLE FOR
       CHILLICOTHE AND FARMINGTON.

MOZ001>031-035>038-043-044-053-054-251700-
...NORTHERN AND WESTERN MISSOURI...

CITY           SKY/WX    TMP DP  RH WIND       PRES   REMARKS
KANSAS CTY INT MOSUNNY   80  68  66 SW13      29.95S
KANSAS C DTWN  SUNNY     82  68  62 SW8       29.94F
LEE`S SUMMIT   SUNNY     81  68  64 S15       29.97S
ST JOSEPH      SUNNY     81  68  64 S9        29.93S
CHILLICOTHE      N/A     80  69  69 S6        29.96F
KIRKSVILLE     CLOUDY    81  66  60 S7        29.99F

$$
MOZ066>068-077>081-088>096-101>105-251700-
...SOUTHWEST MISSOURI...

CITY           SKY/WX    TMP DP  RH WIND       PRES   REMARKS
SPRINGFIELD    SUNNY     81  67  62 S12       30.00F
JOPLIN         MOSUNNY   82  69  64 S12       29.98S
BRANSON        MOSUNNY   79  66  65 SE7       30.04S

$$
MOZ032>034-039>042-045>050-055>058-069>072-251700-
...CENTRAL MISSOURI...

CITY           SKY/WX    TMP DP  RH WIND       PRES   REMARKS
COLUMBIA       SUNNY     81  68  64 S8        30.00F
JEFFERSON CITY SUNNY     81  66  60 VRB3      30.00F
ROLLA          SUNNY     83  65  54 VRB7      30.04S
SEDALIA        SUNNY     84  69  60 S10       30.00S
WHITEMAN AFB   MOSUNNY   81  66  60 SW10      29.96F
WARRENSBURG    SUNNY     81  64  57 S8        29.97F
OSAGE BEACH    SUNNY     82  68  62 S6        30.02F

$$
MOZ051-052-059>065-251700-
...EAST CENTRAL MISSOURI...

CITY           SKY/WX    TMP DP  RH WIND       PRES   REMARKS
ST LOUIS INTL  SUNNY     86  67  52 SW6       30.02F
SPIRIT OF STL  MOSUNNY   83  69  62 VRB6      30.00F
ST CHARLES     SUNNY     85  66  53 MISG      30.00F

$$
MOZ072>076-082>087-097>100-106>115-251700-
...SOUTH CENTRAL AND SOUTHEAST MISSOURI...

CITY           SKY/WX    TMP DP  RH WIND       PRES   REMARKS
CAPE GIRARDEAU SUNNY     84  67  56 VRB3      30.02F
FARMINGTON     SUNNY     83  67  58 VRB3      30.05F
POPLAR BLUFF   SUNNY     82  68  62 SE3       30.02S
WEST PLAINS    SUNNY     81  64  56 SE7       30.05F

$$



USA.gov is the U.S. government's official web portal to all federal, state and local government web resources and services.